User: anonymous
Location: Clatteringshaws Loch
(55.0508°N, 4.2860°W)
Time: 14:41:31
(UTC+01:00)
Language:

Sapphire - Orbit

View from above orbital plane
View from above orbital plane
View from above satellite
View from above satellite

Ground track
Ground track

The orbit data is extracted from the following two-line orbital elements,

1 26932U 01043D   14260.13007621  .00000064  00000-0  56673-4 0  7026
2 26932 067.0569 162.4070 0007061 292.7869 067.2486 14.30029896676794
Epoch (UTC): 17 September 2014 03:07:18
Eccentricity: 0.0007061
inclination: 67.0569°
perigee height: 786 km
apogee height: 796 km
right ascension of ascending node: 162.4070°
argument of perigee: 292.7869°
revolutions per day: 14.30029896
mean anomaly at epoch: 67.2486°
orbit number at epoch: 67679

The dashed part of the orbit path shows where the satellite is in the earth's shadow,  

DLR